Year,Month,Day,Hour,Minute,Value (Times are PST for insolation in W/m^2)
2011,10,08,00,00,0.00
2011,10,08,00,01,0.00
2011,10,08,00,02,0.00
2011,10,08,00,03,0.00
2011,10,08,00,04,0.00
2011,10,08,00,05,0.00
2011,10,08,00,06,0.00
2011,10,08,00,07,0.00
2011,10,08,00,08,0.00
2011,10,08,00,09,0.00
2011,10,08,00,10,0.00
2011,10,08,00,11,0.00
2011,10,08,00,12,0.00
2011,10,08,00,13,0.00
2011,10,08,00,14,0.00
2011,10,08,00,15,0.00
2011,10,08,00,16,0.00
2011,10,08,00,17,0.00
2011,10,08,00,18,0.00
2011,10,08,00,19,0.00
2011,10,08,00,20,0.00
2011,10,08,00,21,0.00
2011,10,08,00,22,0.00
2011,10,08,00,23,0.00
2011,10,08,00,24,0.00
2011,10,08,00,25,0.00
2011,10,08,00,26,0.00
2011,10,08,00,27,0.00
2011,10,08,00,28,0.00
2011,10,08,00,29,0.00
2011,10,08,00,30,0.00
2011,10,08,00,31,0.00
2011,10,08,00,32,0.00
2011,10,08,00,33,0.00
2011,10,08,00,34,0.00
2011,10,08,00,35,0.00
2011,10,08,00,36,0.00
2011,10,08,00,37,0.00
2011,10,08,00,38,0.00
2011,10,08,00,39,0.00
2011,10,08,00,40,0.00
2011,10,08,00,41,0.00
2011,10,08,00,42,0.00
2011,10,08,00,43,0.00
2011,10,08,00,44,0.00
2011,10,08,00,45,0.00
2011,10,08,00,46,0.00
2011,10,08,00,47,0.00
2011,10,08,00,48,0.00
2011,10,08,00,49,0.00
2011,10,08,00,50,0.00
2011,10,08,00,51,0.00
2011,10,08,00,52,0.00
2011,10,08,00,53,0.00
2011,10,08,00,54,0.00
2011,10,08,00,55,0.00
2011,10,08,00,56,0.00
2011,10,08,00,57,0.00
2011,10,08,00,58,0.00
2011,10,08,00,59,0.00
2011,10,08,01,00,0.00
2011,10,08,01,01,0.00
2011,10,08,01,02,0.00
2011,10,08,01,03,0.00
2011,10,08,01,04,0.00
2011,10,08,01,05,0.00
2011,10,08,01,06,0.00
2011,10,08,01,07,0.00
2011,10,08,01,08,0.00
2011,10,08,01,09,0.00
2011,10,08,01,10,0.00
2011,10,08,01,11,0.00
2011,10,08,01,12,0.00
2011,10,08,01,13,0.00
2011,10,08,01,14,0.00
2011,10,08,01,15,0.00
2011,10,08,01,16,0.00
2011,10,08,01,17,0.00
2011,10,08,01,18,0.00
2011,10,08,01,19,0.00
2011,10,08,01,20,0.00
2011,10,08,01,21,0.00
2011,10,08,01,22,0.00
2011,10,08,01,23,0.00
2011,10,08,01,24,0.00
2011,10,08,01,25,0.00
2011,10,08,01,26,0.00
2011,10,08,01,27,0.00
2011,10,08,01,28,0.00
2011,10,08,01,29,0.00
2011,10,08,01,30,0.00
2011,10,08,01,31,0.00
2011,10,08,01,32,0.00
2011,10,08,01,33,0.00
2011,10,08,01,34,0.00
2011,10,08,01,35,0.00
2011,10,08,01,36,0.00
2011,10,08,01,37,0.00
2011,10,08,01,38,0.00
2011,10,08,01,39,0.00
2011,10,08,01,40,0.00
2011,10,08,01,41,0.00
2011,10,08,01,42,0.00
2011,10,08,01,43,0.00
2011,10,08,01,44,0.00
2011,10,08,01,45,0.00
2011,10,08,01,46,0.00
2011,10,08,01,47,0.00
2011,10,08,01,48,0.00
2011,10,08,01,49,0.00
2011,10,08,01,50,0.00
2011,10,08,01,51,0.00
2011,10,08,01,52,0.00
2011,10,08,01,53,0.00
2011,10,08,01,54,0.00
2011,10,08,01,55,0.00
2011,10,08,01,56,0.00
2011,10,08,01,57,0.00
2011,10,08,01,58,0.00
2011,10,08,01,59,0.00
2011,10,08,02,00,0.00
2011,10,08,02,01,0.00
2011,10,08,02,02,0.00
2011,10,08,02,03,0.00
2011,10,08,02,04,0.00
2011,10,08,02,05,0.00
2011,10,08,02,06,0.00
2011,10,08,02,07,0.00
2011,10,08,02,08,0.00
2011,10,08,02,09,0.00
2011,10,08,02,10,0.00
2011,10,08,02,11,0.00
2011,10,08,02,12,0.00
2011,10,08,02,13,0.00
2011,10,08,02,14,0.00
2011,10,08,02,15,0.00
2011,10,08,02,16,0.00
2011,10,08,02,17,0.00
2011,10,08,02,18,0.00
2011,10,08,02,19,0.00
2011,10,08,02,20,0.00
2011,10,08,02,21,0.00
2011,10,08,02,22,0.00
2011,10,08,02,23,0.00
2011,10,08,02,24,0.00
2011,10,08,02,25,0.00
2011,10,08,02,26,0.00
2011,10,08,02,27,0.00
2011,10,08,02,28,0.00
2011,10,08,02,29,0.00
2011,10,08,02,30,0.00
2011,10,08,02,31,0.00
2011,10,08,02,32,0.00
2011,10,08,02,33,0.00
2011,10,08,02,34,0.00
2011,10,08,02,35,0.00
2011,10,08,02,36,0.00
2011,10,08,02,37,0.00
2011,10,08,02,38,0.00
2011,10,08,02,39,0.00
2011,10,08,02,40,0.00
2011,10,08,02,41,0.00
2011,10,08,02,42,0.00
2011,10,08,02,43,0.00
2011,10,08,02,44,0.00
2011,10,08,02,45,0.00
2011,10,08,02,46,0.00
2011,10,08,02,47,0.00
2011,10,08,02,48,0.00
2011,10,08,02,49,0.00
2011,10,08,02,50,0.00
2011,10,08,02,51,0.00
2011,10,08,02,52,0.00
2011,10,08,02,53,0.00
2011,10,08,02,54,0.00
2011,10,08,02,55,0.00
2011,10,08,02,56,0.00
2011,10,08,02,57,0.00
2011,10,08,02,58,0.00
2011,10,08,02,59,0.00
2011,10,08,03,00,0.00
2011,10,08,03,01,0.00
2011,10,08,03,02,0.00
2011,10,08,03,06,0.00
2011,10,08,03,07,0.00
2011,10,08,03,08,0.00
2011,10,08,03,09,0.00
2011,10,08,03,10,0.00
2011,10,08,03,11,0.00
2011,10,08,03,12,0.00
2011,10,08,03,13,0.00
2011,10,08,03,14,0.00
2011,10,08,03,15,0.00
2011,10,08,03,16,0.00
2011,10,08,03,17,0.00
2011,10,08,03,18,0.00
2011,10,08,03,19,0.00
2011,10,08,03,20,0.00
2011,10,08,03,21,0.00
2011,10,08,03,22,0.00
2011,10,08,03,23,0.00
2011,10,08,03,24,0.00
2011,10,08,03,25,0.00
2011,10,08,03,26,0.00
2011,10,08,03,27,0.00
2011,10,08,03,28,0.00
2011,10,08,03,29,0.00
2011,10,08,03,30,0.00
2011,10,08,03,31,0.00
2011,10,08,03,32,0.00
2011,10,08,03,33,0.00
2011,10,08,03,34,0.00
2011,10,08,03,35,0.00
2011,10,08,03,36,0.00
2011,10,08,03,37,0.00
2011,10,08,03,38,0.00
2011,10,08,03,39,0.00
2011,10,08,03,40,0.00
2011,10,08,03,41,0.00
2011,10,08,03,42,0.00
2011,10,08,03,43,0.00
2011,10,08,03,44,0.00
2011,10,08,03,45,0.00
2011,10,08,03,46,0.00
2011,10,08,03,47,0.00
2011,10,08,03,48,0.00
2011,10,08,03,49,0.00
2011,10,08,03,50,0.00
2011,10,08,03,51,0.00
2011,10,08,03,52,0.00
2011,10,08,03,53,0.00
2011,10,08,03,54,0.00
2011,10,08,03,55,0.00
2011,10,08,03,56,0.00
2011,10,08,03,57,0.00
2011,10,08,03,58,0.00
2011,10,08,03,59,0.00
2011,10,08,04,00,0.00
2011,10,08,04,01,0.00
2011,10,08,04,02,0.00
2011,10,08,04,03,0.00
2011,10,08,04,04,0.00
2011,10,08,04,05,0.00
2011,10,08,04,06,0.00
2011,10,08,04,07,0.00
2011,10,08,04,08,0.00
2011,10,08,04,09,0.00
2011,10,08,04,10,0.00
2011,10,08,04,11,0.00
2011,10,08,04,12,0.00
2011,10,08,04,13,0.00
2011,10,08,04,14,0.00
2011,10,08,04,15,0.00
2011,10,08,04,16,0.00
2011,10,08,04,17,0.00
2011,10,08,04,18,0.00
2011,10,08,04,19,0.00
2011,10,08,04,20,0.00
2011,10,08,04,21,0.00
2011,10,08,04,22,0.00
2011,10,08,04,23,0.00
2011,10,08,04,24,0.00
2011,10,08,04,25,0.00
2011,10,08,04,26,0.00
2011,10,08,04,27,0.00
2011,10,08,04,28,0.00
2011,10,08,04,29,0.00
2011,10,08,04,30,0.00
2011,10,08,04,31,0.00
2011,10,08,04,32,0.00
2011,10,08,04,33,0.00
2011,10,08,04,34,0.00
2011,10,08,04,35,0.00
2011,10,08,04,36,0.00
2011,10,08,04,37,0.00
2011,10,08,04,38,0.00
2011,10,08,04,39,0.00
2011,10,08,04,40,0.00
2011,10,08,04,41,0.00
2011,10,08,04,42,0.00
2011,10,08,04,43,0.00
2011,10,08,04,44,0.00
2011,10,08,04,45,0.00
2011,10,08,04,46,0.00
2011,10,08,04,47,0.00
2011,10,08,04,48,0.00
2011,10,08,04,49,0.00
2011,10,08,04,50,0.00
2011,10,08,04,51,0.00
2011,10,08,04,52,0.00
2011,10,08,04,53,0.00
2011,10,08,04,54,0.00
2011,10,08,04,55,0.00
2011,10,08,04,56,0.00
2011,10,08,04,57,0.00
2011,10,08,04,58,0.00
2011,10,08,04,59,0.00
2011,10,08,05,00,0.00
2011,10,08,05,01,0.00
2011,10,08,05,02,0.00
2011,10,08,05,03,0.00
2011,10,08,05,04,0.00
2011,10,08,05,05,0.00
2011,10,08,05,06,0.00
2011,10,08,05,07,0.00
2011,10,08,05,08,0.00
2011,10,08,05,09,0.00
2011,10,08,05,10,0.00
2011,10,08,05,11,0.00
2011,10,08,05,12,0.00
2011,10,08,05,13,0.00
2011,10,08,05,14,0.00
2011,10,08,05,15,0.00
2011,10,08,05,16,0.00
2011,10,08,05,17,0.00
2011,10,08,05,18,0.00
2011,10,08,05,19,0.00
2011,10,08,05,20,0.00
2011,10,08,05,21,0.00
2011,10,08,05,22,0.00
2011,10,08,05,23,0.00
2011,10,08,05,24,0.00
2011,10,08,05,25,0.00
2011,10,08,05,26,0.00
2011,10,08,05,27,0.00
2011,10,08,05,28,0.00
2011,10,08,05,29,0.00
2011,10,08,05,30,0.00
2011,10,08,05,31,0.00
2011,10,08,05,32,0.00
2011,10,08,05,33,0.00
2011,10,08,05,34,0.00
2011,10,08,05,35,0.00
2011,10,08,05,36,0.00
2011,10,08,05,37,0.00
2011,10,08,05,38,0.00
2011,10,08,05,39,0.00
2011,10,08,05,40,0.00
2011,10,08,05,41,0.00
2011,10,08,05,42,0.00
2011,10,08,05,43,0.00
2011,10,08,05,44,0.00
2011,10,08,05,45,0.00
2011,10,08,05,46,0.00
2011,10,08,05,47,0.00
2011,10,08,05,48,0.00
2011,10,08,05,49,0.00
2011,10,08,05,50,0.00
2011,10,08,05,51,0.00
2011,10,08,05,52,0.00
2011,10,08,05,53,0.00
2011,10,08,05,54,0.00
2011,10,08,05,55,0.00
2011,10,08,05,56,0.00
2011,10,08,05,57,0.00
2011,10,08,05,58,0.00
2011,10,08,05,59,0.00
2011,10,08,06,00,0.00
2011,10,08,06,01,0.00
2011,10,08,06,02,0.00
2011,10,08,06,03,0.00
2011,10,08,06,04,0.00
2011,10,08,06,05,0.00
2011,10,08,06,06,0.00
2011,10,08,06,07,0.00
2011,10,08,06,08,0.00
2011,10,08,06,09,0.00
2011,10,08,06,10,0.00
2011,10,08,06,11,0.00
2011,10,08,06,12,0.00
2011,10,08,06,13,0.00
2011,10,08,06,14,0.00
2011,10,08,06,15,0.00
2011,10,08,06,16,0.00
2011,10,08,06,17,0.00
2011,10,08,06,18,0.00
2011,10,08,06,19,0.00
2011,10,08,06,20,0.00
2011,10,08,06,21,0.00
2011,10,08,06,22,0.00
2011,10,08,06,23,0.00
2011,10,08,06,24,0.00
2011,10,08,06,25,0.00
2011,10,08,06,26,0.00
2011,10,08,06,27,0.00
2011,10,08,06,28,0.00
2011,10,08,06,29,0.00
2011,10,08,06,30,0.00
2011,10,08,06,31,0.00
2011,10,08,06,32,0.00
2011,10,08,06,33,0.00
2011,10,08,06,34,0.00
2011,10,08,06,35,0.00
2011,10,08,06,36,0.00
2011,10,08,06,37,0.00
2011,10,08,06,38,0.00
2011,10,08,06,39,0.00
2011,10,08,06,40,0.00
2011,10,08,06,41,0.00
2011,10,08,06,42,0.00
2011,10,08,06,43,0.00
2011,10,08,06,44,0.00
2011,10,08,06,45,0.00
2011,10,08,06,46,0.00
2011,10,08,06,47,0.00
2011,10,08,06,48,0.00
2011,10,08,06,49,0.00
2011,10,08,06,50,0.00
2011,10,08,06,51,0.00
2011,10,08,06,52,0.00
2011,10,08,06,53,0.00
2011,10,08,06,54,0.00
2011,10,08,06,55,0.00
2011,10,08,06,56,0.00
2011,10,08,06,57,0.00
2011,10,08,06,58,0.00
2011,10,08,06,59,0.00
2011,10,08,07,00,0.00
2011,10,08,07,01,0.00
2011,10,08,07,02,0.00
2011,10,08,07,03,0.00
2011,10,08,07,04,0.00
2011,10,08,07,05,0.00
2011,10,08,07,06,0.00
2011,10,08,07,07,0.00
2011,10,08,07,08,0.00
2011,10,08,07,09,0.00
2011,10,08,07,10,0.00
2011,10,08,07,11,0.00
2011,10,08,07,12,0.00
2011,10,08,07,13,0.00
2011,10,08,07,14,0.00
2011,10,08,07,15,0.00
2011,10,08,07,16,0.00
2011,10,08,07,17,0.00
2011,10,08,07,18,0.00
2011,10,08,07,19,0.00
2011,10,08,07,20,0.00
2011,10,08,07,21,2.60
2011,10,08,07,22,5.00
2011,10,08,07,23,5.00
2011,10,08,07,24,6.30
2011,10,08,07,25,7.00
2011,10,08,07,26,7.00
2011,10,08,07,27,8.50
2011,10,08,07,28,9.00
2011,10,08,07,29,10.70
2011,10,08,07,30,11.90
2011,10,08,07,31,12.00
2011,10,08,07,32,13.90
2011,10,08,07,33,14.10
2011,10,08,07,34,16.20
2011,10,08,07,35,18.10
2011,10,08,07,36,19.30
2011,10,08,07,37,21.40
2011,10,08,07,38,23.50
2011,10,08,07,39,25.00
2011,10,08,07,40,25.00
2011,10,08,07,41,25.40
2011,10,08,07,42,26.00
2011,10,08,07,43,26.90
2011,10,08,07,44,29.00
2011,10,08,07,45,31.60
2011,10,08,07,46,35.40
2011,10,08,07,47,39.00
2011,10,08,07,48,42.70
2011,10,08,07,49,44.00
2011,10,08,07,50,44.00
2011,10,08,07,51,46.40
2011,10,08,07,52,50.40
2011,10,08,07,53,53.70
2011,10,08,07,54,53.00
2011,10,08,07,55,49.00
2011,10,08,07,56,49.00
2011,10,08,07,57,49.00
2011,10,08,07,58,49.00
2011,10,08,07,59,49.00
2011,10,08,08,00,49.40
2011,10,08,08,01,51.70
2011,10,08,08,02,52.50
2011,10,08,08,03,48.30
2011,10,08,08,04,48.60
2011,10,08,08,05,50.20
2011,10,08,08,06,49.90
2011,10,08,08,07,53.50
2011,10,08,08,08,56.00
2011,10,08,08,09,54.80
2011,10,08,08,10,59.70
2011,10,08,08,11,72.30
2011,10,08,08,12,74.90
2011,10,08,08,13,72.50
2011,10,08,08,14,73.60
2011,10,08,08,15,78.20
2011,10,08,08,16,82.60
2011,10,08,08,17,83.00
2011,10,08,08,18,83.90
2011,10,08,08,19,80.80
2011,10,08,08,20,77.30
2011,10,08,08,21,83.00
2011,10,08,08,22,81.60
2011,10,08,08,23,74.80
2011,10,08,08,24,68.80
2011,10,08,08,25,63.40
2011,10,08,08,26,59.30
2011,10,08,08,27,58.00
2011,10,08,08,28,60.20
2011,10,08,08,29,59.50
2011,10,08,08,30,54.30
2011,10,08,08,31,49.80
2011,10,08,08,32,46.50
2011,10,08,08,33,48.00
2011,10,08,08,34,61.60
2011,10,08,08,35,79.50
2011,10,08,08,36,84.00
2011,10,08,08,37,66.40
2011,10,08,08,38,68.40
2011,10,08,08,39,67.30
2011,10,08,08,40,67.00
2011,10,08,08,41,83.20
2011,10,08,08,42,87.80
2011,10,08,08,43,82.40
2011,10,08,08,44,77.20
2011,10,08,08,45,77.90
2011,10,08,08,46,71.20
2011,10,08,08,47,68.50
2011,10,08,08,48,65.50
2011,10,08,08,49,64.80
2011,10,08,08,50,70.70
2011,10,08,08,51,70.80
2011,10,08,08,52,67.20
2011,10,08,08,53,63.50
2011,10,08,08,54,62.00
2011,10,08,08,55,58.70
2011,10,08,08,56,54.20
2011,10,08,08,57,53.00
2011,10,08,08,58,51.60
2011,10,08,08,59,48.00
2011,10,08,09,00,44.60
2011,10,08,09,01,42.30
2011,10,08,09,02,40.30
2011,10,08,09,03,39.10
2011,10,08,09,04,35.20
2011,10,08,09,05,32.00
2011,10,08,09,06,31.90
2011,10,08,09,07,30.30
2011,10,08,09,08,32.20
2011,10,08,09,09,33.40
2011,10,08,09,10,35.00
2011,10,08,09,11,35.00
2011,10,08,09,12,34.30
2011,10,08,09,13,33.00
2011,10,08,09,14,33.00
2011,10,08,09,15,33.00
2011,10,08,09,16,36.50
2011,10,08,09,17,42.20
2011,10,08,09,18,45.20
2011,10,08,09,19,46.60
2011,10,08,09,20,45.00
2011,10,08,09,21,42.60
2011,10,08,09,22,40.50
2011,10,08,09,23,40.00
2011,10,08,09,24,41.60
2011,10,08,09,25,42.00
2011,10,08,09,26,40.20
2011,10,08,09,27,38.90
2011,10,08,09,28,36.90
2011,10,08,09,29,34.80
2011,10,08,09,30,33.20
2011,10,08,09,31,35.80
2011,10,08,09,32,40.80
2011,10,08,09,33,43.50
2011,10,08,09,34,43.20
2011,10,08,09,35,45.40
2011,10,08,09,36,43.30
2011,10,08,09,37,42.00
2011,10,08,09,38,43.80
2011,10,08,09,39,46.50
2011,10,08,09,40,50.30
2011,10,08,09,41,53.60
2011,10,08,09,42,56.50
2011,10,08,09,43,59.40
2011,10,08,09,44,60.00
2011,10,08,09,45,55.50
2011,10,08,09,46,51.60
2011,10,08,09,47,49.30
2011,10,08,09,48,49.00
2011,10,08,09,49,53.50
2011,10,08,09,50,56.00
2011,10,08,09,51,56.40
2011,10,08,09,52,63.70
2011,10,08,09,53,70.90
2011,10,08,09,54,76.50
2011,10,08,09,55,79.40
2011,10,08,09,56,82.20
2011,10,08,09,57,88.90
2011,10,08,09,58,97.90
2011,10,08,09,59,98.10
2011,10,08,10,00,91.20
2011,10,08,10,01,81.50
2011,10,08,10,02,76.50
2011,10,08,10,03,82.80
2011,10,08,10,04,89.20
2011,10,08,10,05,98.80
2011,10,08,10,06,110.00
2011,10,08,10,07,121.80
2011,10,08,10,08,126.50
2011,10,08,10,09,127.80
2011,10,08,10,10,131.40
2011,10,08,10,11,136.20
2011,10,08,10,12,149.60
2011,10,08,10,13,178.00
2011,10,08,10,14,205.40
2011,10,08,10,15,190.60
2011,10,08,10,16,167.00
2011,10,08,10,17,152.90
2011,10,08,10,18,137.40
2011,10,08,10,19,122.20
2011,10,08,10,20,121.50
2011,10,08,10,21,127.80
2011,10,08,10,22,137.80
2011,10,08,10,23,146.20
2011,10,08,10,24,152.10
2011,10,08,10,25,160.70
2011,10,08,10,26,162.20
2011,10,08,10,27,160.00
2011,10,08,10,28,165.40
2011,10,08,10,29,169.00
2011,10,08,10,30,167.60
2011,10,08,10,31,165.60
2011,10,08,10,32,152.20
2011,10,08,10,33,137.20
2011,10,08,10,34,126.50
2011,10,08,10,35,121.40
2011,10,08,10,36,114.30
2011,10,08,10,37,99.40
2011,10,08,10,38,87.60
2011,10,08,10,39,81.00
2011,10,08,10,40,81.00
2011,10,08,10,41,80.60
2011,10,08,10,42,78.20
2011,10,08,10,43,76.90
2011,10,08,10,44,80.80
2011,10,08,10,45,83.60
2011,10,08,10,46,84.30
2011,10,08,10,47,94.00
2011,10,08,10,48,111.00
2011,10,08,10,49,128.20
2011,10,08,10,50,140.20
2011,10,08,10,51,145.20
2011,10,08,10,52,146.00
2011,10,08,10,53,141.10
2011,10,08,10,54,133.70
2011,10,08,10,55,124.70
2011,10,08,10,56,117.10
2011,10,08,10,57,113.40
2011,10,08,10,58,109.40
2011,10,08,10,59,104.00
2011,10,08,11,00,105.40
2011,10,08,11,01,113.80
2011,10,08,11,02,121.70
2011,10,08,11,03,129.70
2011,10,08,11,04,138.10
2011,10,08,11,05,145.20
2011,10,08,11,06,158.00
2011,10,08,11,07,165.60
2011,10,08,11,08,171.60
2011,10,08,11,09,206.40
2011,10,08,11,10,250.10
2011,10,08,11,11,298.50
2011,10,08,11,12,355.50
2011,10,08,11,13,369.00
2011,10,08,11,14,338.10
2011,10,08,11,15,298.70
2011,10,08,11,16,281.40
2011,10,08,11,17,231.80
2011,10,08,11,18,247.20
2011,10,08,11,19,196.10
2011,10,08,11,20,195.20
2011,10,08,11,21,236.60
2011,10,08,11,22,259.00
2011,10,08,11,23,246.20
2011,10,08,11,24,247.90
2011,10,08,11,25,219.10
2011,10,08,11,26,213.50
2011,10,08,11,27,210.00
2011,10,08,11,28,205.50
2011,10,08,11,29,202.70
2011,10,08,11,30,197.20
2011,10,08,11,31,196.10
2011,10,08,11,32,214.00
2011,10,08,11,33,227.90
2011,10,08,11,34,233.00
2011,10,08,11,35,283.10
2011,10,08,11,36,316.00
2011,10,08,11,37,316.00
2011,10,08,11,38,316.00
2011,10,08,11,39,316.00
2011,10,08,11,40,316.00
2011,10,08,11,41,384.00
2011,10,08,11,42,401.00
2011,10,08,11,43,208.10
2011,10,08,11,44,156.90
2011,10,08,11,45,226.20
2011,10,08,11,46,225.00
2011,10,08,11,47,264.00
2011,10,08,11,48,615.00
2011,10,08,11,49,547.10
2011,10,08,11,50,185.00
2011,10,08,11,51,185.00
2011,10,08,11,52,247.10
2011,10,08,11,53,392.00
2011,10,08,11,54,486.90
2011,10,08,11,55,663.00
2011,10,08,11,56,439.90
2011,10,08,11,57,221.50
2011,10,08,11,58,215.40
2011,10,08,11,59,183.00
2011,10,08,12,00,187.20
2011,10,08,12,01,190.00
2011,10,08,12,02,190.00
2011,10,08,12,03,534.40
2011,10,08,12,04,630.90
2011,10,08,12,05,628.00
2011,10,08,12,06,411.10
2011,10,08,12,07,387.00
2011,10,08,12,08,548.10
2011,10,08,12,09,557.00
2011,10,08,12,10,557.00
2011,10,08,12,11,557.00
2011,10,08,12,12,562.10
2011,10,08,12,13,589.60
2011,10,08,12,14,585.80
2011,10,08,12,15,589.20
2011,10,08,12,16,585.00
2011,10,08,12,17,585.80
2011,10,08,12,18,586.20
2011,10,08,12,19,584.50
2011,10,08,12,20,583.10
2011,10,08,12,21,580.90
2011,10,08,12,22,582.40
2011,10,08,12,23,586.00
2011,10,08,12,24,588.30
2011,10,08,12,25,592.50
2011,10,08,12,26,587.20
2011,10,08,12,27,584.20
2011,10,08,12,28,586.40
2011,10,08,12,29,588.70
2011,10,08,12,30,585.40
2011,10,08,12,31,584.00
2011,10,08,12,32,582.10
2011,10,08,12,33,584.00
2011,10,08,12,34,584.20
2011,10,08,12,35,584.80
2011,10,08,12,36,584.60
2011,10,08,12,37,586.50
2011,10,08,12,38,586.20
2011,10,08,12,39,586.80
2011,10,08,12,40,582.70
2011,10,08,12,41,585.20
2011,10,08,12,42,587.90
2011,10,08,12,43,590.00
2011,10,08,12,44,591.00
2011,10,08,12,45,592.70
2011,10,08,12,46,595.20
2011,10,08,12,47,592.60
2011,10,08,12,48,591.00
2011,10,08,12,49,593.20
2011,10,08,12,50,592.40
2011,10,08,12,51,595.40
2011,10,08,12,52,617.20
2011,10,08,12,53,612.90
2011,10,08,12,54,603.40
2011,10,08,12,55,610.00
2011,10,08,12,56,544.00
2011,10,08,12,57,614.20
2011,10,08,12,58,581.70
2011,10,08,12,59,644.90
2011,10,08,13,00,658.00
2011,10,08,13,01,655.50
2011,10,08,13,02,640.00
2011,10,08,13,03,579.10
2011,10,08,13,04,497.60
2011,10,08,13,05,559.70
2011,10,08,13,06,580.00
2011,10,08,13,07,411.60
2011,10,08,13,08,260.00
2011,10,08,13,09,260.00
2011,10,08,13,10,260.00
2011,10,08,13,11,260.00
2011,10,08,13,12,394.20
2011,10,08,13,13,439.00
2011,10,08,13,14,439.00
2011,10,08,13,15,439.00
2011,10,08,13,16,439.00
2011,10,08,13,17,439.00
2011,10,08,13,18,439.00
2011,10,08,13,19,439.00
2011,10,08,13,20,439.00
2011,10,08,13,21,439.00
2011,10,08,13,22,439.00
2011,10,08,13,23,514.20
2011,10,08,13,24,749.90
2011,10,08,13,25,787.30
2011,10,08,13,26,807.60
2011,10,08,13,27,824.50
2011,10,08,13,28,834.50
2011,10,08,13,29,825.20
2011,10,08,13,30,851.00
2011,10,08,13,31,726.20
2011,10,08,13,32,633.60
2011,10,08,13,33,640.00
2011,10,08,13,34,640.00
2011,10,08,13,35,645.20
2011,10,08,13,36,652.20
2011,10,08,13,37,654.00
2011,10,08,13,38,872.50
2011,10,08,13,39,911.00
2011,10,08,13,40,911.00
2011,10,08,13,41,465.20
2011,10,08,13,42,442.40
2011,10,08,13,43,371.10
2011,10,08,13,44,323.20
2011,10,08,13,45,281.30
2011,10,08,13,46,304.00
2011,10,08,13,47,333.70
2011,10,08,13,48,408.00
2011,10,08,13,49,527.30
2011,10,08,13,50,749.00
2011,10,08,13,51,749.00
2011,10,08,13,52,749.00
2011,10,08,13,53,749.00
2011,10,08,13,54,468.40
2011,10,08,13,55,236.30
2011,10,08,13,56,221.70
2011,10,08,13,57,232.20
2011,10,08,13,58,228.00
2011,10,08,13,59,229.00
2011,10,08,14,00,241.80
2011,10,08,14,01,264.70
2011,10,08,14,02,264.20
2011,10,08,14,03,257.40
2011,10,08,14,04,241.10
2011,10,08,14,05,244.00
2011,10,08,14,06,243.90
2011,10,08,14,07,242.40
2011,10,08,14,08,239.50
2011,10,08,14,09,245.20
2011,10,08,14,10,257.00
2011,10,08,14,11,257.00
2011,10,08,14,12,270.00
2011,10,08,14,13,300.00
2011,10,08,14,14,345.50
2011,10,08,14,15,401.50
2011,10,08,14,16,413.00
2011,10,08,14,17,413.00
2011,10,08,14,18,413.00
2011,10,08,14,19,413.00
2011,10,08,14,20,413.00
2011,10,08,14,21,413.00
2011,10,08,14,22,416.00
2011,10,08,14,23,382.10
2011,10,08,14,24,404.60
2011,10,08,14,25,442.20
2011,10,08,14,26,453.60
2011,10,08,14,27,444.10
2011,10,08,14,28,243.20
2011,10,08,14,29,218.20
2011,10,08,14,30,221.40
2011,10,08,14,31,241.60
2011,10,08,14,32,292.00
2011,10,08,14,33,332.50
2011,10,08,14,34,417.70
2011,10,08,14,35,382.90
2011,10,08,14,36,353.00
2011,10,08,14,37,305.80
2011,10,08,14,38,285.00
2011,10,08,14,39,303.50
2011,10,08,14,40,240.40
2011,10,08,14,41,175.20
2011,10,08,14,42,164.40
2011,10,08,14,43,185.10
2011,10,08,14,44,195.80
2011,10,08,14,45,249.90
2011,10,08,14,46,258.40
2011,10,08,14,47,215.60
2011,10,08,14,48,286.00
2011,10,08,14,49,311.00
2011,10,08,14,50,355.40
2011,10,08,14,51,420.00
2011,10,08,14,52,403.70
2011,10,08,14,53,262.50
2011,10,08,14,54,246.20
2011,10,08,14,55,234.00
2011,10,08,14,56,226.90
2011,10,08,14,57,259.20
2011,10,08,14,58,291.30
2011,10,08,14,59,290.00
2011,10,08,15,00,361.10
2011,10,08,15,01,458.00
2011,10,08,15,02,475.40
2011,10,08,15,03,473.20
2011,10,08,15,04,418.60
2011,10,08,15,05,357.10
2011,10,08,15,06,287.10
2011,10,08,15,07,264.00
2011,10,08,15,08,223.20
2011,10,08,15,09,289.90
2011,10,08,15,10,246.30
2011,10,08,15,11,253.10
2011,10,08,15,12,305.40
2011,10,08,15,13,316.00
2011,10,08,15,14,470.40
2011,10,08,15,15,480.90
2011,10,08,15,16,462.00
2011,10,08,15,17,441.20
2011,10,08,15,18,331.00
2011,10,08,15,19,341.50
2011,10,08,15,20,359.00
2011,10,08,15,21,359.00
2011,10,08,15,22,359.00
2011,10,08,15,23,353.10
2011,10,08,15,24,330.50
2011,10,08,15,25,268.70
2011,10,08,15,26,227.00
2011,10,08,15,27,209.20
2011,10,08,15,28,190.90
2011,10,08,15,29,181.10
2011,10,08,15,30,180.50
2011,10,08,15,31,179.50
2011,10,08,15,32,184.10
2011,10,08,15,33,187.60
2011,10,08,15,34,191.60
2011,10,08,15,35,205.30
2011,10,08,15,36,199.50
2011,10,08,15,37,202.00
2011,10,08,15,38,203.20
2011,10,08,15,39,213.00
2011,10,08,15,40,213.60
2011,10,08,15,41,217.30
2011,10,08,15,42,220.70
2011,10,08,15,43,220.00
2011,10,08,15,44,220.00
2011,10,08,15,45,219.20
2011,10,08,15,46,217.10
2011,10,08,15,47,219.50
2011,10,08,15,48,214.20
2011,10,08,15,49,202.90
2011,10,08,15,50,197.00
2011,10,08,15,51,191.80
2011,10,08,15,52,186.50
2011,10,08,15,53,180.60
2011,10,08,15,54,173.80
2011,10,08,15,55,164.40
2011,10,08,15,56,154.00
2011,10,08,15,57,144.50
2011,10,08,15,58,139.20
2011,10,08,15,59,135.00
2011,10,08,16,00,135.10
2011,10,08,16,01,137.00
2011,10,08,16,02,137.30
2011,10,08,16,03,138.60
2011,10,08,16,04,136.00
2011,10,08,16,05,129.30
2011,10,08,16,06,121.20
2011,10,08,16,07,117.20
2011,10,08,16,08,114.70
2011,10,08,16,09,110.20
2011,10,08,16,10,105.50
2011,10,08,16,11,101.80
2011,10,08,16,12,100.00
2011,10,08,16,13,100.00
2011,10,08,16,14,98.70
2011,10,08,16,15,95.90
2011,10,08,16,16,95.00
2011,10,08,16,17,89.40
2011,10,08,16,18,88.00
2011,10,08,16,19,88.00
2011,10,08,16,20,89.90
2011,10,08,16,21,90.90
2011,10,08,16,22,93.00
2011,10,08,16,23,93.20
2011,10,08,16,24,95.20
2011,10,08,16,25,97.80
2011,10,08,16,26,103.80
2011,10,08,16,27,113.10
2011,10,08,16,28,124.30
2011,10,08,16,29,134.40
2011,10,08,16,30,139.80
2011,10,08,16,31,139.40
2011,10,08,16,32,133.90
2011,10,08,16,33,125.00
2011,10,08,16,34,113.20
2011,10,08,16,35,101.50
2011,10,08,16,36,90.40
2011,10,08,16,37,79.80
2011,10,08,16,38,71.40
2011,10,08,16,39,62.20
2011,10,08,16,40,54.70
2011,10,08,16,41,47.90
2011,10,08,16,42,47.00
2011,10,08,16,43,50.60
2011,10,08,16,44,52.90
2011,10,08,16,45,54.00
2011,10,08,16,46,54.00
2011,10,08,16,47,54.30
2011,10,08,16,48,56.00
2011,10,08,16,49,56.40
2011,10,08,16,50,58.00
2011,10,08,16,51,58.60
2011,10,08,16,52,60.60
2011,10,08,16,53,62.30
2011,10,08,16,54,63.80
2011,10,08,16,55,65.90
2011,10,08,16,56,67.00
2011,10,08,16,57,67.00
2011,10,08,16,58,68.80
2011,10,08,16,59,72.40
2011,10,08,17,00,74.00
2011,10,08,17,01,76.10
2011,10,08,17,02,79.90
2011,10,08,17,03,82.60
2011,10,08,17,04,83.00
2011,10,08,17,05,81.30
2011,10,08,17,06,79.20
2011,10,08,17,07,77.10
2011,10,08,17,08,75.90
2011,10,08,17,09,73.90
2011,10,08,17,10,71.80
2011,10,08,17,11,70.00
2011,10,08,17,12,69.50
2011,10,08,17,13,66.20
2011,10,08,17,14,61.50
2011,10,08,17,15,56.60
2011,10,08,17,16,52.90
2011,10,08,17,17,50.20
2011,10,08,17,18,47.70
2011,10,08,17,19,45.10
2011,10,08,17,20,42.90
2011,10,08,17,21,40.80
2011,10,08,17,22,40.00
2011,10,08,17,23,40.00
2011,10,08,17,24,40.00
2011,10,08,17,25,34.80